Location: Camp at the Woods
(43.2055°N, 93.0905°W)
Time: 00:36:48
(UTC+00:00)

Cosmos 2227 Rocket - Pass Details

Date: 23 May 2025
Orbit: 837 x 844 km, 71.0° (Epoch: 12 June)

Event Time Altitude Azimuth Distance (km) Brightness Sun altitude
Exits shadow 06:52:52 18° 114° (ESE) 1,955 4.0 -25.4°
Maximum altitude 06:53:56 19° 99° (E) 1,907 4.0 -25.3°
Drops below altitude 10° 06:57:43 10° 57° (ENE) 2,459 5.2 -25.2°
Sets 07:00:51 0° 40° (NE) 3,400 6.4 -25.1°
